Showing default

GONETS M 13 (M23), 40554

Orbit data source: Space-Track

GONETS M 13 (M23), 40554 is a payload satellite owned by Gonets (CIS) in LEO that was launched on Tue, 31 Mar 2015 UTC via an ROKOT launch vehicle from the Plesetsk Missile And Space Complex (PKMTR). Payloads include a variety of satellites, spacecraft, and rockets equipped with specific instruments for various scientific and technological missions. These include communications satellites like Starlink; space stations such as the ISS; scientific satellites like the Hubble; Earth observation satellites from companies like Planet Labs, Umbra, and HawkEye 360; GPS; miniature CubeSats for education and research; and military/defense satellites.

Loading next visibility...
GONETS M 13 (M23) details
Identifier
40554, 2015-020C
Orbit
LEO
Last TLE update9 hours ago
Origin
Flag of CISGonets (CIS)
ManufacturerResehetnev ISS
MissionOperational Civil Communications
Bus & MotorSTRELA-3M, Unknown motor
Mass225 kg wet, 225 kg dry
Launch date (UTC)
2015-03-31 (10 years ago)
Launch vehicle
ROKOT
Launch site
Plesetsk Missile And Space Complex (PKMTR)
Object type
Payload
Rocket body
Debris
Shape & HBRCyl + 1 Ant, 7 m
Radar Cross Section1.798 m², Large (>1 m²)

Expand to show TLE details & history

TLE from 9 hours ago
0 GONETS M 13 (M23)
1 40554U 15020C   24346.58054034  .00000050  00000-0  28917-3 0  9999
2 40554  82.4866  15.0498 0014627  98.6668 261.6070 12.42883424440136
Epoch: 2024-12-11T13:55Z
Definitive object data (Epoch: 2024-12-11T13:55:58.685Z)
Latitude0.00006°
Longitude85.28211°
Altitude1,498.801 km
Speed7.114 km/s
True Right ascension01h 00m 11s
True Declination0° 00' 00"
Sunlit
Object was in daylight at TLE epoch
Visualization TLE readout
Latitude-75.6385°
Longitude54.20459°
Altitude1,533.272 km
Speed7.094 km/s
Apparent Right ascension08h 44m 11s
Apparent Declination-75° 02' 32"
Sunlit
Object is in daylight
Visualization observer readout
Local Sidereal Time21:34:37
Azimuth174.446° S
Elevation-54.401°
Doppler factor1
Orbital elements
Apogee altitude1,503.267 km
Perigee altitude1,480.244 km
Semi-major axis7,869.892 km
Eccentricity0.0014627
Inclination82.4866°
RAAN15.0498°
Arg. of periapsis98.6668°
True anomaly261.44123°
Mean anomaly261.607°
Eccentric anomaly261.52411°
Mean motion3.10878 °/min
BSTAR0.00028917
Orbital period115.8 mins
Loading maneuver chart data...
Loading historical data...
Loading historical data...
Loading historical data...
Loading historical data...
Loading historical data...
Loading historical data...
Loading historical data...

GONETS M 13 (M23) Visibility forecast

Observer location: undefined°, undefined

Span
Click to sort rows by Start time (UTC) header in descending order
Start Az.
Max El. time (UTC)
Max El. Az.
Max El.
End time (UTC)
End Az.
14 mins2024-12-12 01:37:29.020Z140.992° SSE2024-12-12 01:44:29.020Z83.123° E28.163°2024-12-12 01:51:29.020Z26.901° NE
15 mins2024-12-12 03:33:29.020Z210.316° SW2024-12-12 03:40:29.020Z276.639° WNW38.57°2024-12-12 03:48:29.020Z357.411° N
7 mins2024-12-12 11:50:29.020Z39.071° NE2024-12-12 11:53:29.020Z61.391° ENE14.153°2024-12-12 11:57:29.020Z89.83° E
15 mins2024-12-12 13:44:29.020Z356.575° N2024-12-12 13:51:29.020Z67.121° ENE44.089°2024-12-12 13:59:29.020Z166.48° S
10 mins2024-12-12 15:43:29.020Z313.501° NW2024-12-12 15:47:29.020Z280.596° WNW20.068°2024-12-12 15:53:29.020Z235.862° WSW
|